Overview Statistics Trail Chart Weather Telemetry Raw packets
 

This is the latest recevied weather packets stored in our database for station/object ED3YAB-7. If no packets are shown the sender has not sent any weather packets the latest 10 day(s).

<< 25 26 27 28 29 30 31 >>
Time Temp. Humidity Pressure Rain* Wind** Luminosity Snow
1777561353 42.78° C 12% 1020.4 hPa - - - -
1777560162 41.11° C 13% 1020.5 hPa - - - -
1777558960 42.78° C 12% 1020.5 hPa - - - -
1777558953 42.78° C 12% 1020.5 hPa - - - -
1777557753 42.22° C 13% 1020.7 hPa - - - -
1777556560 38.89° C 15% 1020.8 hPa - - - -
1777556552 38.89° C 15% 1020.8 hPa - - - -
1777555360 41.11° C 15% 1020.8 hPa - - - -
1777555352 41.11° C 15% 1020.8 hPa - - - -
1777554152 40° C 15% 1020.9 hPa - - - -
1777552959 29.44° C 26% 1021.1 hPa - - - -
1777552952 29.44° C 26% 1021.1 hPa - - - -
1777551759 27.78° C 28% 1021.1 hPa - - - -
1777551752 27.78° C 28% 1021.1 hPa - - - -
1777550563 26.11° C 30% 1021.2 hPa - - - -
1777550552 26.11° C 30% 1021.2 hPa - - - -
1777549372 25° C 33% 1021.3 hPa - - - -
1777549351 25° C 33% 1021.3 hPa - - - -
1777548151 25° C 34% 1021.4 hPa - - - -
1777546951 24.44° C 34% 1021.5 hPa - - - -
1777545751 23.33° C 32% 1021.5 hPa - - - -
1777544558 23.89° C 33% 1021.6 hPa - - - -
1777544551 23.89° C 33% 1021.6 hPa - - - -
1777543362 23.89° C 34% 1021.6 hPa - - - -
1777543351 23.89° C 34% 1021.6 hPa - - - -

* Rain since midnight (hover to see other rain measurements)
** Current wind speed in m/s (hover to see current wind gust speed)